[[{"header":{"parameterUnit":"m.s-1","parameterCategory":1,"la1":30.2991,"la2":30.254,"lo1":-89.0895,"lo2":-89.0444,"dy":0.0017,"dx":0.0017,"nx":28,"ny":28,"refTime":"2024-07-24T21:00:00:Z","depth":0,"parameterNumber":2,"parameterNumberName":"U-component_of_WINDS"},"data":[0,0,0,0,0,0,0,0,0,0,0,0,0,0,0,0,0,0,0,0,0,0,0,0,0,0,0,0,0,0,0,0,0,0,0,0,0,0,0,0,0,0,0,0,0,0,0,0,0,0,0,0,0,0,0,0,0,0,0.7136,0.7136,0,0.7212,0.7213,0.7214,0.721,0.7209,0.7207,0.7206,0.7294,0.7297,0.73,0,0,0,0,0,0,0,0,0,0,0,0,0,0.6991,0.6994,0.7135,0.7136,0.7137,0.7212,0.7213,0.7214,0.721,0.7209,0.7207,0.7206,0.7293,0.7297,0.7301,0,0,0,0,0,0,0,0,0,0,0,0,0,0.706,0.6995,0.7135,0.7144,0.7146,0.7212,0.7213,0.7214,0.721,0.7209,0.7207,0.7205,0.7291,0.7296,0.7301,0.7366,0,0,0.7317,0.7319,0,0,0,0,0,0,0,0,0.7056,0.7065,0.7142,0.7144,0.7145,0.7199,0.7194,0.7266,0.7211,0.7186,0.7206,0.7204,0.7264,0.7271,0.729,0.737,0.7374,0.7317,0.732,0.7322,0.7324,0,0,0,0,0,0,0,0.7051,0.7062,0.7166,0.7143,0.7145,0.7146,0.7154,0.7208,0.7234,0.7188,0.7188,0.7196,0.7265,0.7285,0.7292,0.7375,0.7317,0.7321,0.7325,0.7327,0.7512,0.7514,0,0,0,0,0,0,0.7043,0.7058,0.7164,0.7168,0.7095,0.715,0.7159,0.7184,0.7233,0.7239,0.7198,0.7196,0.7277,0.7286,0.7295,0.7375,0.7322,0.7327,0.733,0.751,0.7513,0.7515,0,0,0,0,0,0,0.704,0.7053,0.7161,0.7113,0.7127,0.7154,0.7183,0.7186,0.7206,0.7241,0.7246,0.7213,0.7276,0.7288,0.7348,0.7378,0.7329,0.7334,0.7508,0.7511,0.7514,0.7535,0,0,0,0,0,0,0.7036,0.7052,0.7076,0.7113,0.7129,0.7211,0.7184,0.7189,0.7214,0.7212,0.7256,0.7262,0.7276,0.734,0.7353,0.7384,0.7338,0.7506,0.7509,0.7513,0.7531,0.7538,0.7543,0,0,0,0,0,0.7031,0.7081,0.7077,0.709,0.7159,0.7212,0.7222,0.7234,0.7216,0.7242,0.7263,0.7261,0.7371,0.7346,0.7361,0.7394,0.7504,0.7508,0.7513,0.7529,0.7537,0.7543,0,0,0,0,0,0,0.705,0.7086,0.7083,0.7145,0.7175,0.7211,0.7244,0.7242,0.728,0.7277,0.7292,0.7302,0.7363,0.7384,0.7355,0.7458,0.7436,0.7443,0.7443,0.7451,0.7457,0.7452,0.7342,0,0,0,0,0,0.7061,0.7098,0.7129,0.7181,0.7196,0.7217,0.7241,0.7246,0.728,0.7293,0.7319,0.7354,0.7396,0.7424,0.7465,0.7533,0.7543,0.7562,0.7568,0.7573,0.758,0.7618,0.7627,0.7529,0.7529,0.7529,0,0,0.7086,0.7109,0.7133,0.7186,0.721,0.725,0.7228,0.7273,0.7303,0.7301,0.7359,0.7378,0.7418,0.7482,0.7511,0.7501,0.7608,0.7578,0.7581,0.7587,0.7623,0.7632,0.764,0.7532,0.7531,0.7531,0,0,0.7151,0.7172,0.7218,0.7241,0.7276,0.7289,0.7299,0.7335,0.7347,0.7404,0.7403,0.744,0.7512,0.754,0.7564,0.7634,0.7634,0.7647,0.768,0.7716,0.7724,0.7731,0.7758,0.7767,0.7654,0.7654,0.7654,0,0.7178,0.7237,0.7243,0.7286,0.731,0.7304,0.7352,0.7375,0.7423,0.744,0.7426,0.7515,0.7542,0.7612,0.7628,0.7647,0.7662,0.7645,0.7722,0.7729,0.7735,0.7761,0.7771,0.7655,0.7655,0.7655,0.7655,0,0.7269,0.7309,0.7342,0.7384,0.7411,0.7457,0.7471,0.7498,0.75,0.7514,0.7572,0.7602,0.7649,0.7665,0.7669,0.7736,0.7728,0.7718,0.7696,0.7746,0.7771,0.7781,0.7657,0.7657,0.7656,0.7656,0,0,0.7354,0.7394,0.7407,0.7426,0.7461,0.7494,0.7538,0.758,0.7603,0.7635,0.7675,0.7733,0.7723,0.775,0.7756,0.7788,0.7843,0.7774,0.7775,0.7787,0.7919,0.7929,0.794,0.784,0.7842,0.7844,0.7916,0,0.7425,0.7502,0.7506,0.7577,0.7615,0.7608,0.7647,0.7674,0.7688,0.7723,0.7739,0.7781,0.7763,0.7779,0.7809,0.783,0.787,0.7824,0.7881,0.7882,0.7874,0.7953,0.7964,0.8031,0.7926,0.7927,0.7929,0,0.7519,0.755,0.7623,0.7651,0.7668,0.7702,0.774,0.7773,0.7803,0.7811,0.7838,0.7839,0.7887,0.7859,0.7926,0.7894,0.7917,0.7929,0.7932,0.7942,0.7911,0.7967,0.8053,0.8064,0.7944,0.7942,0.7941,0,0.7576,0.7636,0.7687,0.7703,0.7737,0.7761,0.7777,0.7805,0.7829,0.7862,0.7878,0.7917,0.794,0.797,0.7983,0.7961,0.8049,0.8022,0.8059,0.8059,0.8082,0.8081,0.8176,0.8091,0.809,0.809,0.809,0,0.7657,0.7703,0.7713,0.7745,0.7796,0.78,0.7851,0.7866,0.789,0.7926,0.7922,0.7956,0.7968,0.8005,0.8015,0.8069,0.8079,0.8088,0.8091,0.809,0.809,0.8109,0.8106,0.8093,0.8092,0.8092,0.8091,0,0.7732,0.774,0.7796,0.7821,0.7828,0.7865,0.7888,0.7919,0.7929,0.7975,0.7986,0.8004,0.8047,0.806,0.8113,0.8119,0.8183,0.818,0.8172,0.8174,0.821,0.8208,0.8324,0.834,0.8241,0.8242,0.8243,0,0.7785,0.782,0.7847,0.7869,0.7884,0.7921,0.7944,0.7948,0.7973,0.8007,0.8035,0.8076,0.811,0.8178,0.8198,0.8237,0.8237,0.8275,0.8244,0.8242,0.8241,0.824,0.8244,0.8282,0.8283,0.8284,0.8285,0,0.7879,0.788,0.7912,0.7945,0.7971,0.7998,0.8025,0.8043,0.8052,0.808,0.8121,0.8146,0.8197,0.8239,0.8278,0.8296,0.8293,0.8293,0.8304,0.8307,0.8301,0.8307,0.8192,0.8292,0.8291,0.8291,0.829,0.829,0.7947,0.7977,0.7999,0.8035,0.8053,0.8077,0.8107,0.8119,0.8153,0.8193,0.8193,0.8238,0.8266,0.8318,0.8337,0.8374,0.8364,0.838,0.8384,0.8389,0.8393,0.8291,0.8381,0.8381,0.8381,0.8381,0.838,0,0.8043,0.8055,0.8087,0.8122,0.8149,0.8138,0.8165,0.819,0.8229,0.8253,0.8284,0.8331,0.837,0.839,0.843,0.8455,0.8455,0.8466,0.8466,0.847,0.8399,0.8386,0.8465,0.8465,0.8465,0.8465,0.8465,0.8465,0.8096,0.8146,0.8149,0.8208,0.8221,0.8263,0.8279,0.8301,0.832,0.8372,0.8403,0.8413,0.8437,0.8476,0.8512,0.8517,0.8533,0.8546,0.855,0.8484,0.8476,0.8467,0.8456,0.8548,0.8549,0.8619,0.862,0.862]},{"header":{"parameterUnit":"m.s-1","parameterCategory":1,"la1":30.2991,"la2":30.254,"lo1":-89.0895,"lo2":-89.0444,"dy":0.0017,"dx":0.0017,"nx":28,"ny":28,"refTime":"2024-07-24T21:00:00:Z","depth":0,"parameterNumber":3,"parameterNumberName":"V-component_of_WINDS"},"data":[0,0,0,0,0,0,0,0,0,0,0,0,0,0,0,0,0,0,0,0,0,0,0,0,0,0,0,0,0,0,0,0,0,0,0,0,0,0,0,0,0,0,0,0,0,0,0,0,0,0,0,0,0,0,0,0,0,0,2.8246,2.8246,0,2.8229,2.8229,2.8229,2.8222,2.8222,2.8222,2.8222,2.8204,2.8204,2.8203,0,0,0,0,0,0,0,0,0,0,0,0,0,2.827,2.827,2.8246,2.8246,2.8246,2.8229,2.8229,2.8229,2.8222,2.8222,2.8222,2.8222,2.8204,2.8204,2.8203,0,0,0,0,0,0,0,0,0,0,0,0,0,2.8257,2.827,2.8246,2.824,2.8239,2.8229,2.8229,2.8229,2.8222,2.8222,2.8222,2.8222,2.8205,2.8204,2.8203,2.8198,0,0,2.8201,2.8201,0,0,0,0,0,0,0,0,2.8258,2.8256,2.8241,2.8241,2.824,2.8228,2.8231,2.8218,2.8222,2.8228,2.8222,2.8222,2.8212,2.8211,2.8207,2.8197,2.8196,2.8201,2.82,2.82,2.82,0,0,0,0,0,0,0,2.8259,2.8257,2.8239,2.8241,2.824,2.8238,2.8236,2.8229,2.822,2.8228,2.8227,2.8225,2.8212,2.8208,2.8207,2.8196,2.8201,2.82,2.82,2.8199,2.8177,2.8177,0,0,0,0,0,0,2.8261,2.8258,2.824,2.8239,2.8249,2.8237,2.8235,2.8231,2.822,2.8219,2.8225,2.8225,2.8209,2.8208,2.8206,2.8197,2.82,2.8199,2.8199,2.8177,2.8177,2.8177,0,0,0,0,0,0,2.8261,2.8259,2.8241,2.8248,2.8246,2.8237,2.8233,2.8231,2.8228,2.8218,2.8217,2.8223,2.8209,2.8207,2.8199,2.8197,2.8199,2.8198,2.8177,2.8177,2.8177,2.818,0,0,0,0,0,0,2.8262,2.826,2.8258,2.8248,2.8245,2.8235,2.8232,2.8231,2.8226,2.8226,2.8216,2.8215,2.8209,2.82,2.8198,2.8196,2.8198,2.8178,2.8177,2.8177,2.818,2.818,2.818,0,0,0,0,0,2.8263,2.826,2.8258,2.8256,2.8243,2.8234,2.8233,2.8227,2.8226,2.8224,2.8218,2.8215,2.8197,2.82,2.8197,2.8194,2.8178,2.8177,2.8177,2.8181,2.818,2.818,0,0,0,0,0,0,2.8271,2.8259,2.8256,2.825,2.8243,2.8233,2.8231,2.8227,2.822,2.822,2.8213,2.821,2.8202,2.8198,2.8201,2.8187,2.8187,2.8186,2.819,2.819,2.819,2.8191,2.8197,0,0,0,0,0,2.8272,2.8266,2.8256,2.8251,2.8248,2.824,2.8236,2.8232,2.8224,2.8221,2.8214,2.8207,2.8199,2.8195,2.8187,2.818,2.8176,2.8176,2.8176,2.8176,2.8175,2.8168,2.8168,2.8176,2.8176,2.8176,0,0,2.8274,2.8266,2.8263,2.8253,2.8247,2.824,2.8237,2.8231,2.8226,2.822,2.8212,2.8206,2.8197,2.8189,2.8185,2.8184,2.8172,2.8176,2.8176,2.8175,2.8168,2.8167,2.8167,2.8175,2.8176,2.8176,0,0,2.8274,2.8268,2.8263,2.8257,2.8247,2.8241,2.824,2.823,2.8226,2.8217,2.8212,2.8205,2.8193,2.8186,2.8181,2.8176,2.8172,2.8174,2.8173,2.8166,2.8166,2.8165,2.8161,2.816,2.8173,2.8173,2.8173,0,2.8277,2.8267,2.8261,2.8254,2.8249,2.8242,2.8236,2.823,2.8219,2.8215,2.8215,2.8198,2.8192,2.818,2.8179,2.8175,2.8172,2.8175,2.8166,2.8166,2.8165,2.8161,2.816,2.8173,2.8173,2.8173,2.8173,0,2.8271,2.8264,2.8261,2.825,2.8244,2.8238,2.8229,2.8224,2.8219,2.8213,2.8203,2.8195,2.8185,2.8182,2.8178,2.8169,2.8169,2.8168,2.8168,2.8164,2.8161,2.816,2.8173,2.8173,2.8173,2.8173,0,0,2.8277,2.826,2.8259,2.8253,2.8241,2.8235,2.8227,2.8217,2.8212,2.8204,2.8197,2.8185,2.8183,2.8177,2.8172,2.8167,2.816,2.8166,2.8165,2.8164,2.8148,2.8148,2.8147,2.8158,2.8158,2.8158,2.8148,0,2.8274,2.8261,2.8253,2.8243,2.8235,2.8228,2.8221,2.8212,2.8206,2.8198,2.819,2.8182,2.818,2.8176,2.8171,2.8163,2.8157,2.8163,2.815,2.815,2.8152,2.8146,2.8147,2.8138,2.8147,2.8147,2.8147,0,2.827,2.8261,2.8249,2.8236,2.8233,2.8227,2.8215,2.8208,2.8197,2.8193,2.8185,2.818,2.817,2.817,2.8156,2.816,2.8154,2.8149,2.8149,2.8147,2.8148,2.8142,2.8136,2.8134,2.8145,2.8145,2.8145,0,2.8273,2.8259,2.8249,2.8244,2.8229,2.8224,2.8218,2.8207,2.82,2.819,2.8186,2.8175,2.8169,2.816,2.8151,2.8153,2.8137,2.8137,2.8132,2.8132,2.8128,2.8129,2.812,2.8126,2.8126,2.8126,2.8126,0,2.8271,2.8264,2.825,2.8244,2.8235,2.8225,2.8216,2.8209,2.8199,2.8191,2.8184,2.8176,2.8166,2.8156,2.8149,2.8137,2.8135,2.813,2.8128,2.813,2.813,2.8125,2.8125,2.8126,2.8126,2.8126,2.8126,0,2.8273,2.8264,2.8253,2.8239,2.8235,2.8228,2.8216,2.8209,2.8201,2.8191,2.8187,2.8175,2.8163,2.8154,2.8139,2.8134,2.8121,2.8119,2.8124,2.8123,2.8117,2.8117,2.8104,2.8101,2.8111,2.8111,2.8111,0,2.8272,2.8266,2.8251,2.8244,2.8238,2.8228,2.8221,2.8211,2.8203,2.8189,2.8184,2.8171,2.8161,2.8141,2.8131,2.8118,2.8116,2.8112,2.8114,2.8115,2.8114,2.8114,2.8113,2.8112,2.8112,2.8112,2.8112,0,2.827,2.8265,2.8255,2.8243,2.8234,2.8224,2.8214,2.8209,2.8197,2.8189,2.8176,2.8168,2.8151,2.8138,2.8124,2.8117,2.8111,2.8111,2.8109,2.811,2.8113,2.811,2.8122,2.8111,2.8111,2.8111,2.8111,2.8111,2.827,2.8263,2.8251,2.8239,2.823,2.822,2.8212,2.8203,2.8192,2.8178,2.8172,2.8159,2.8146,2.8126,2.8118,2.8107,2.8106,2.8104,2.8103,2.8102,2.8101,2.8115,2.8104,2.8104,2.8104,2.8104,2.8104,0,2.8267,2.8258,2.8247,2.8232,2.8222,2.8218,2.8206,2.8198,2.8186,2.8174,2.8163,2.8148,2.8134,2.8122,2.8108,2.8101,2.8098,2.8097,2.8097,2.8095,2.8103,2.8106,2.81,2.81,2.81,2.81,2.81,2.81,2.8264,2.8251,2.8245,2.8227,2.8218,2.8205,2.8198,2.8188,2.8178,2.816,2.8149,2.8141,2.8128,2.8113,2.81,2.8096,2.8091,2.8091,2.8086,2.8094,2.8095,2.8095,2.8098,2.809,2.809,2.8079,2.8079,2.8079]}]]